{"data":{"norad_id":59904,"intl_designator":"2024-100V","name":"STARLINK-31924","alt_names":[],"object_type":"PAYLOAD","status":"ACTIVE","operator":null,"country":"US","launch_date":"2024-05-28","launch_site_code":"AFETR","launch_vehicle":null,"mission":null,"orbit_class":"UNKNOWN","rcs_meters":null,"size_class":null,"mass_kg":null,"dimensions":null,"purposes":["comms"],"wikipedia_slug":null,"has_3d_model":false,"image_url":null,"decayed_at":null,"tle_current":{"epoch":"2026-05-25T03:54:24.298272Z","epoch_age_seconds":71706,"freshness":"FRESH","line1":"1 59904U 24100V   26145.16278123 -.00000045  00000+0  78904-5 0  9994","line2":"2 59904  43.0009  53.4102 0001286 274.9198  85.1507 15.27583228112842","mean_motion":15.27583228,"eccentricity":0.0001286,"inclination_deg":43.0009,"raan_deg":53.4102,"arg_perigee_deg":274.9198,"mean_anomaly_deg":85.1507,"bstar":7.8904e-6,"rev_number":11284,"period_min":94.266549514643,"perigee_km":482.15708297448,"apogee_km":483.92177755234,"semimajor_km":6861.1764302634,"source":"CELESTRAK","updated_at":"2026-05-25T13:38:19.120330Z"}}}